GROUP/SHIP,CRUISE_DESIGNATION,JD_GMT,DATE_DDMMYYYY,TIME_HH:MM:SS,LAT_DEC_DEGREE,LONG_DEC_DEGREE,xCO2W_PPM,xCO2A_PPM,PRES_EQUIL_hPa,PRES_SEALEVEL_hPa,EqTEMP_C,SST(TSG)_C,SAL(TSG)_PERMIL,WATER_FLOW_L/MIN,GAS_FLOW_IR_ML/MIN,TEMP_IR_C,PRES_IR_hPa,SHIP_HEADING_TRUE_DEGREE,SHIP_SPEED_KNOT,WIND_DIR_REL_DEGREE,WIND_SPEED_REL_M/S,fCO2W@SST_uATM,QC_FLAG_WATER,fCO2A_uATM,QC_FLAG_AIR,dfCO2_uATM,FLUORO_uG/L,WIND_SPEED_TRUE_M/S,WIND_DIR_TRUE_DEGREE,AIR_TEMP_C
AOML_Brown,RB200309,300.763,27102003,18:18:21,11.923,-94.565,416.61,375.16,1007.86,-9,28.72,28.63,32.84,11.53,235.97,32.24,1007.86,-9,-9,19.80,10.69,395.94,2,357.74,2,38.20,1.08,5.02,341.49,-9
AOML_Brown,RB200309,300.766,27102003,18:23:01,11.928,-94.581,414.21,375.16,1007.73,-9,28.70,28.56,32.77,11.61,235.14,32.26,1007.73,-9,-9,21.80,10.28,392.96,2,357.74,2,35.22,1.14,4.81,345.97,-9
AOML_Brown,RB200309,300.769,27102003,18:27:21,11.933,-94.596,406.40,375.16,1007.73,-9,28.65,28.54,32.71,11.48,239.72,32.27,1007.73,-9,-9,20.10,10.49,386.08,2,357.74,2,28.34,1.15,4.73,336.90,-9
AOML_Brown,RB200309,300.772,27102003,18:32:01,11.938,-94.612,400.16,375.16,1007.57,-9,28.69,28.62,32.74,11.55,235.41,32.27,1007.57,-9,-9,20.60,10.49,380.60,2,357.74,2,22.86,1.16,4.97,340.61,-9
AOML_Brown,RB200309,300.784,27102003,18:48:21,11.957,-94.668,405.95,375.16,1007.53,-9,28.61,28.50,32.82,11.61,232.35,32.31,1007.53,-9,-9,19.80,11.59,385.56,2,357.74,2,27.82,1.07,5.87,336.04,-9
AOML_Brown,RB200309,300.787,27102003,18:53:01,11.962,-94.684,408.59,375.16,1007.82,-9,28.58,28.50,32.81,11.52,233.59,32.30,1007.82,-9,-9,23.70,11.29,388.65,2,357.74,2,30.91,1.07,5.92,344.14,-9
AOML_Brown,RB200309,300.790,27102003,18:57:21,11.967,-94.699,410.60,375.16,1007.31,-9,28.61,28.52,32.84,11.31,235.44,32.28,1007.31,-9,-9,18.20,11.48,390.24,2,357.74,2,32.50,1.02,5.74,333.59,-9
AOML_Brown,RB200309,300.793,27102003,19:02:01,11.972,-94.715,412.12,375.16,1007.04,-9,28.67,28.56,32.87,11.53,235.66,32.28,1007.04,-9,-9,15.00,10.78,391.18,2,357.74,2,33.44,0.94,4.74,327.78,-9
AOML_Brown,RB200309,300.804,27102003,19:18:21,11.989,-94.771,411.13,375.00,1007.04,-9,28.68,28.59,33.01,11.47,234.18,32.28,1007.04,-9,-9,17.20,10.49,390.57,2,357.32,2,33.25,0.84,4.74,333.05,-9
AOML_Brown,RB200309,300.808,27102003,19:23:01,11.994,-94.787,410.83,375.00,1007.28,-9,28.68,28.60,33.10,11.52,237.06,32.30,1007.28,-9,-9,12.80,11.09,390.41,2,357.32,2,33.09,0.91,4.93,321.77,-9
AOML_Brown,RB200309,300.811,27102003,19:27:21,11.999,-94.802,411.46,375.00,1006.49,-9,28.68,28.64,33.13,11.37,238.60,32.32,1006.49,-9,-9,13.50,10.19,391.25,2,357.32,2,33.94,0.92,4.13,331.00,-9
AOML_Brown,RB200309,300.814,27102003,19:32:01,12.004,-94.817,413.58,375.00,1006.85,-9,28.62,28.54,33.13,11.38,238.48,32.33,1006.85,-9,-9,9.40,8.29,392.91,2,357.32,2,35.59,0.92,4.40,329.48,-9
AOML_Brown,RB200309,300.825,27102003,19:48:21,12.015,-94.826,416.77,375.00,1006.32,-9,28.46,28.29,33.15,11.54,232.70,32.33,1006.32,-9,-9,323.80,5.29,394.68,2,357.32,2,37.36,0.93,5.08,318.16,-9
AOML_Brown,RB200309,300.828,27102003,19:53:01,12.015,-94.827,416.47,375.00,1006.25,-9,28.47,28.30,33.15,11.49,235.38,32.32,1006.25,-9,-9,321.40,5.19,394.40,2,357.32,2,37.08,0.91,5.03,312.44,-9
AOML_Brown,RB200309,300.831,27102003,19:57:21,12.014,-94.827,416.72,375.00,1006.08,-9,28.45,28.43,33.16,11.49,233.01,32.30,1006.08,-9,-9,343.50,4.59,396.63,2,357.32,2,39.31,0.96,4.51,319.57,-9
AOML_Brown,RB200309,300.835,27102003,20:02:01,12.014,-94.827,419.30,375.00,1006.08,-9,28.54,28.49,33.18,11.49,234.58,32.27,1006.08,-9,-9,339.40,4.50,398.53,2,357.32,2,41.21,1.02,4.50,330.60,-9
AOML_Brown,RB200309,300.846,27102003,20:18:21,12.014,-94.827,419.95,374.81,1006.10,-9,28.37,28.30,33.17,11.29,234.84,32.31,1006.10,-9,-9,340.60,4.59,399.11,2,357.11,2,42.01,1.06,4.40,330.61,-9
AOML_Brown,RB200309,300.849,27102003,20:23:01,12.013,-94.827,421.11,374.81,1006.17,-9,28.45,28.35,33.20,11.39,235.71,32.29,1006.17,-9,-9,337.10,4.39,399.70,2,357.11,2,42.60,1.12,3.97,328.60,-9
AOML_Brown,RB200309,300.852,27102003,20:27:21,12.013,-94.827,422.04,374.81,1005.93,-9,28.35,28.33,33.17,11.21,237.32,32.26,1005.93,-9,-9,331.10,5.19,401.67,2,357.11,2,44.56,1.09,5.29,325.40,-9
AOML_Brown,RB200309,300.856,27102003,20:32:01,12.013,-94.827,421.95,374.81,1005.84,-9,28.37,28.28,33.19,11.23,237.63,32.26,1005.84,-9,-9,343.70,5.09,400.50,2,357.11,2,43.40,1.07,5.09,337.90,-9
AOML_Brown,RB200309,300.867,27102003,20:48:21,12.013,-94.827,426.71,374.81,1006.12,-9,28.34,28.26,33.24,11.37,232.34,32.33,1006.12,-9,-9,335.60,4.80,405.43,2,357.11,2,48.32,1.26,4.66,331.62,-9
AOML_Brown,RB200309,300.870,27102003,20:53:01,12.012,-94.827,429.31,374.81,1005.77,-9,28.33,28.24,33.24,11.33,231.17,32.32,1005.77,-9,-9,336.10,4.39,407.59,2,357.11,2,50.48,1.23,4.30,331.44,-9
AOML_Brown,RB200309,300.873,27102003,20:57:21,12.012,-94.827,429.79,374.81,1005.90,-9,28.29,28.20,33.24,11.35,236.11,32.29,1005.90,-9,-9,331.70,4.69,408.11,2,357.11,2,51.00,1.25,4.47,326.74,-9
AOML_Brown,RB200309,300.876,27102003,21:02:01,12.012,-94.827,428.33,374.81,1005.91,-9,28.24,28.18,33.22,11.56,234.81,32.30,1005.91,-9,-9,340.20,5.09,407.20,2,357.11,2,50.09,1.29,5.09,330.20,-9
AOML_Brown,RB200309,300.888,27102003,21:18:21,12.012,-94.827,429.44,374.72,1005.80,-9,28.25,28.23,33.27,11.35,236.04,32.30,1005.80,-9,-9,332.00,4.19,408.72,2,357.14,2,51.58,1.24,4.10,332.99,-9
AOML_Brown,RB200309,300.891,27102003,21:23:01,12.012,-94.827,433.63,374.72,1006.12,-9,28.34,28.27,33.31,11.47,237.34,32.31,1006.12,-9,-9,321.40,4.50,412.11,2,357.14,2,54.97,1.22,4.26,319.21,-9
AOML_Brown,RB200309,300.894,27102003,21:27:21,12.012,-94.827,436.30,374.72,1005.82,-9,28.24,28.16,33.27,11.14,237.63,32.32,1005.82,-9,-9,328.60,4.80,414.40,2,357.14,2,57.26,1.28,4.80,339.10,-9
AOML_Brown,RB200309,300.897,27102003,21:32:01,12.012,-94.827,435.70,374.72,1005.94,-9,28.24,28.19,33.29,11.38,239.06,32.31,1005.94,-9,-9,335.20,5.19,414.30,2,357.14,2,57.16,1.26,5.01,335.71,-9
AOML_Brown,RB200309,300.909,27102003,21:48:21,12.012,-94.827,434.32,374.72,1006.18,-9,28.21,28.10,33.27,11.34,235.16,32.35,1006.18,-9,-9,310.80,4.59,412.31,2,357.14,2,55.17,1.31,4.59,313.20,-9
AOML_Brown,RB200309,300.912,27102003,21:53:01,12.012,-94.827,433.19,374.72,1006.08,-9,28.20,28.10,33.25,11.40,235.43,32.34,1006.08,-9,-9,325.80,4.39,411.29,2,357.14,2,54.14,1.35,4.39,326.60,-9
AOML_Brown,RB200309,300.915,27102003,21:57:21,12.012,-94.828,431.75,374.72,1005.96,-9,28.17,28.06,33.25,11.40,236.16,32.35,1005.96,-9,-9,335.50,4.19,409.78,2,357.14,2,52.64,1.38,3.89,337.10,-9
AOML_Brown,RB200309,300.918,27102003,22:02:01,12.012,-94.827,430.86,374.72,1006.21,-9,28.17,28.07,33.26,11.24,236.27,32.35,1006.21,-9,-9,320.50,4.39,409.18,2,357.14,2,52.04,1.39,4.39,327.60,-9
AOML_Brown,RB200309,300.929,27102003,22:18:21,12.012,-94.827,429.82,374.60,1006.13,-9,28.11,28.01,33.26,11.46,235.78,32.39,1006.13,-9,-9,327.20,4.10,408.22,2,357.20,2,51.02,1.43,4.10,337.00,-9
AOML_Brown,RB200309,300.933,27102003,22:23:01,12.012,-94.827,431.13,374.60,1006.21,-9,28.11,28.06,33.29,11.21,238.71,32.39,1006.21,-9,-9,331.20,4.89,410.20,2,357.20,2,53.00,1.40,4.89,342.20,-9
AOML_Brown,RB200309,300.936,27102003,22:27:21,12.012,-94.827,433.35,374.60,1006.17,-9,28.12,28.00,33.27,11.26,238.83,32.40,1006.17,-9,-9,324.30,5.09,411.40,2,357.20,2,54.19,1.42,5.01,334.61,-9
AOML_Brown,RB200309,300.939,27102003,22:32:01,12.012,-94.827,432.80,374.60,1006.30,-9,28.05,27.97,33.26,11.30,238.19,32.40,1006.30,-9,-9,325.80,4.89,411.43,2,357.20,2,54.23,1.35,4.89,337.60,-9
AOML_Brown,RB200309,300.950,27102003,22:48:21,12.012,-94.827,436.18,374.60,1006.44,-9,28.16,28.08,33.30,11.21,233.07,32.41,1006.44,-9,-9,322.10,5.00,414.62,2,357.20,2,57.42,1.35,4.84,334.88,-9
AOML_Brown,RB200309,300.953,27102003,22:53:01,12.012,-94.827,438.00,374.60,1006.44,-9,28.17,28.10,33.31,11.34,237.16,32.43,1006.44,-9,-9,323.70,5.19,416.50,2,357.20,2,59.30,1.35,5.03,335.01,-9
AOML_Brown,RB200309,300.956,27102003,22:57:21,12.012,-94.827,439.55,374.60,1006.12,-9,28.18,28.09,33.32,11.31,238.25,32.44,1006.12,-9,-9,321.50,5.19,417.50,2,357.20,2,60.30,1.36,5.19,334.40,-9
AOML_Brown,RB200309,300.960,27102003,23:02:01,12.012,-94.827,440.24,374.60,1006.97,-9,28.14,28.05,33.31,11.23,236.51,32.43,1006.97,-9,-9,325.80,5.49,418.56,2,357.20,2,61.36,1.39,5.24,337.80,-9
AOML_Brown,RB200309,300.971,27102003,23:18:21,12.012,-94.828,434.30,374.54,1006.51,-9,27.94,27.82,33.27,11.14,237.71,32.47,1006.51,-9,-9,310.60,4.89,412.46,2,357.06,2,55.40,1.44,4.73,345.23,-9
AOML_Brown,RB200309,300.974,27102003,23:23:01,12.012,-94.828,433.73,374.54,1006.35,-9,28.01,27.99,33.31,11.06,237.08,32.49,1006.35,-9,-9,309.50,5.29,413.34,2,357.06,2,56.28,1.35,5.13,341.08,-9
AOML_Brown,RB200309,300.977,27102003,23:27:21,12.012,-94.828,437.68,374.54,1006.23,-9,28.11,28.04,33.33,11.03,237.89,32.50,1006.23,-9,-9,311.50,5.49,416.28,2,357.06,2,59.22,1.31,5.89,341.90,-9
AOML_Brown,RB200309,300.981,27102003,23:32:01,12.012,-94.828,440.17,374.54,1006.38,-9,28.10,28.02,33.33,11.04,238.17,32.48,1006.38,-9,-9,298.00,5.19,418.54,2,357.06,2,61.48,1.35,5.10,330.16,-9
AOML_Brown,RB200309,300.992,27102003,23:48:21,12.012,-94.828,443.64,374.54,1006.24,-9,28.09,27.99,33.34,11.16,236.01,32.50,1006.24,-9,-9,301.00,6.29,421.46,2,357.06,2,64.40,1.37,6.22,330.38,-9
AOML_Brown,RB200309,300.995,27102003,23:53:01,12.012,-94.828,443.66,374.54,1006.39,-9,28.06,27.97,33.34,11.14,234.15,32.51,1006.39,-9,-9,292.90,5.29,421.64,2,357.06,2,64.58,1.33,5.27,328.19,-9
AOML_Brown,RB200309,300.998,27102003,23:57:21,12.012,-94.828,443.25,374.54,1006.02,-9,28.06,27.95,33.33,11.09,235.53,32.50,1006.02,-9,-9,297.90,5.69,420.80,2,357.06,2,63.74,1.35,5.69,333.70,-9
AOML_Brown,RB200309,301.001,28102003,00:02:01,12.012,-94.828,443.13,374.54,1006.27,-9,28.05,27.95,33.34,11.06,236.40,32.48,1006.27,-9,-9,310.20,5.89,421.07,2,357.06,2,64.01,1.40,5.73,337.03,-9
AOML_Brown,RB200309,301.013,28102003,00:18:21,12.012,-94.828,450.43,374.47,1006.00,-9,28.11,28.05,33.42,11.16,237.48,32.50,1006.00,-9,-9,305.30,5.29,428.39,2,356.98,2,71.40,1.52,5.17,342.73,-9
AOML_Brown,RB200309,301.016,28102003,00:23:01,12.012,-94.828,453.46,374.47,1006.22,-9,28.15,28.08,33.44,11.03,238.87,32.51,1006.22,-9,-9,307.50,4.69,431.22,2,356.98,2,74.23,1.53,4.69,341.30,-9
AOML_Brown,RB200309,301.019,28102003,00:27:21,12.012,-94.828,456.02,374.47,1006.36,-9,28.17,28.11,33.46,10.92,236.76,32.53,1006.36,-9,-9,293.80,4.59,433.82,2,356.98,2,76.84,1.56,4.51,345.27,-9
AOML_Brown,RB200309,301.022,28102003,00:32:01,12.012,-94.828,458.46,374.47,1006.79,-9,28.21,28.12,33.48,11.00,238.50,32.54,1006.79,-9,-9,304.80,5.39,435.89,2,356.98,2,78.90,1.61,5.22,342.92,-9
AOML_Brown,RB200309,301.034,28102003,00:48:21,12.012,-94.828,461.87,374.47,1006.48,-9,28.21,28.16,33.49,10.71,235.94,32.60,1006.48,-9,-9,299.00,5.19,439.46,2,356.98,2,82.48,1.67,5.19,339.60,-9
AOML_Brown,RB200309,301.037,28102003,00:53:01,12.012,-94.828,461.96,374.47,1006.47,-9,28.21,28.17,33.49,10.81,235.43,32.61,1006.47,-9,-9,287.50,4.80,439.72,2,356.98,2,82.73,1.71,4.80,327.60,-9
AOML_Brown,RB200309,301.040,28102003,00:57:21,12.013,-94.828,461.73,374.47,1006.44,-9,28.23,28.13,33.46,10.84,236.24,32.59,1006.44,-9,-9,301.60,4.30,438.65,2,356.98,2,81.66,1.72,4.47,338.99,-9
AOML_Brown,RB200309,301.043,28102003,01:02:01,12.013,-94.828,459.68,374.47,1006.80,-9,28.17,28.12,33.46,10.94,237.74,32.58,1006.80,-9,-9,293.20,5.59,437.63,2,356.98,2,80.64,1.76,5.59,333.30,-9
AOML_Brown,RB200309,301.054,28102003,01:18:21,12.013,-94.828,452.79,374.45,1006.98,-9,28.18,28.11,33.42,10.87,237.55,32.56,1006.98,-9,-9,286.00,5.59,430.87,2,357.24,2,73.62,1.79,5.59,326.40,-9
AOML_Brown,RB200309,301.058,28102003,01:23:01,12.011,-94.827,451.18,374.45,1006.91,-9,28.16,28.05,33.38,10.90,236.66,32.57,1006.91,-9,-9,232.60,2.40,428.77,2,357.24,2,71.52,1.83,4.27,336.78,-9
AOML_Brown,RB200309,301.061,28102003,01:27:21,12.004,-94.821,445.88,374.45,1006.97,-9,28.08,28.02,33.33,10.87,238.74,32.56,1006.97,-9,-9,200.00,0.00,424.45,2,357.24,2,67.21,1.87,4.94,320.80,-9
AOML_Brown,RB200309,301.064,28102003,01:32:01,11.991,-94.816,443.54,374.45,1007.08,-9,28.14,28.14,33.33,10.89,239.51,32.53,1007.08,-9,-9,71.20,2.40,423.18,2,357.24,2,65.93,1.79,5.99,319.09,-9
AOML_Brown,RB200309,301.075,28102003,01:48:21,11.930,-94.824,432.86,374.45,1007.40,-9,28.42,28.43,33.13,10.75,236.73,32.53,1007.40,-9,-9,64.50,6.19,412.96,2,357.24,2,55.72,1.19,6.72,314.06,-9
AOML_Brown,RB200309,301.078,28102003,01:53:01,11.913,-94.828,424.74,374.45,1007.55,-9,28.56,28.55,33.11,10.77,235.89,32.52,1007.55,-9,-9,51.50,4.89,404.97,2,357.24,2,47.73,1.13,5.54,323.97,-9
AOML_Brown,RB200309,301.081,28102003,01:57:21,11.896,-94.832,419.53,374.45,1007.62,-9,28.59,28.53,33.02,10.65,236.71,32.52,1007.62,-9,-9,47.20,4.69,399.16,2,357.24,2,41.92,1.10,5.43,325.90,-9
AOML_Brown,RB200309,301.085,28102003,02:02:01,11.879,-94.835,414.91,374.45,1007.74,-9,28.60,28.56,32.95,10.60,240.46,32.51,1007.74,-9,-9,50.90,4.80,395.11,2,357.24,2,37.87,1.06,5.48,322.64,-9
AOML_Brown,RB200309,301.096,28102003,02:18:22,11.818,-94.844,413.28,374.36,1008.16,-9,28.61,28.53,32.82,11.00,237.23,32.52,1008.16,-9,-9,42.50,5.00,393.25,2,357.38,2,35.87,1.63,4.76,311.42,-9
AOML_Brown,RB200309,301.099,28102003,02:23:02,11.801,-94.845,411.82,374.36,1008.35,-9,28.61,28.56,32.78,10.87,238.65,32.53,1008.35,-9,-9,36.50,4.69,392.37,2,357.38,2,34.99,1.84,4.07,311.56,-9
AOML_Brown,RB200309,301.102,28102003,02:27:22,11.785,-94.845,407.20,374.36,1008.39,-9,28.65,28.60,32.74,10.96,240.89,32.51,1008.39,-9,-9,44.60,5.29,387.92,2,357.38,2,30.53,2.02,4.99,295.87,-9
AOML_Brown,RB200309,301.106,28102003,02:32:02,11.767,-94.845,401.82,374.36,1008.47,-9,28.66,28.60,32.72,10.64,241.10,32.51,1008.47,-9,-9,33.50,4.59,382.58,2,357.38,2,25.20,1.99,3.90,314.21,-9
AOML_Brown,RB200309,301.117,28102003,02:48:22,11.706,-94.846,400.29,374.36,1008.72,-9,28.69,28.63,32.76,10.97,236.84,32.52,1008.72,-9,-9,41.40,4.59,381.20,2,357.38,2,23.81,1.81,4.67,317.35,-9
AOML_Brown,RB200309,301.120,28102003,02:53:02,11.688,-94.847,403.33,374.36,1008.79,-9,28.70,28.63,32.80,10.86,237.39,32.53,1008.79,-9,-9,33.30,4.30,383.99,2,357.38,2,26.60,1.86,4.02,321.35,-9
AOML_Brown,RB200309,301.123,28102003,02:57:22,11.672,-94.848,406.73,374.36,1008.82,-9,28.69,28.62,32.81,10.76,239.14,32.53,1008.82,-9,-9,48.00,4.50,387.23,2,357.38,2,29.85,1.93,5.09,318.22,-9
AOML_Brown,RB200309,301.126,28102003,03:02:02,11.655,-94.849,408.00,374.36,1008.76,-9,28.65,28.55,32.78,10.73,238.70,32.50,1008.76,-9,-9,47.70,4.39,388.11,2,357.38,2,30.73,2.08,4.62,318.16,-9
AOML_Brown,RB200309,301.138,28102003,03:18:22,11.594,-94.850,407.43,374.31,1008.94,-9,28.57,28.49,32.79,10.66,239.20,32.53,1008.94,-9,-9,47.20,4.50,387.92,2,357.67,2,30.25,1.74,5.60,315.56,-9
AOML_Brown,RB200309,301.141,28102003,03:23:02,11.576,-94.850,408.30,374.31,1008.85,-9,28.55,28.45,32.79,10.87,237.62,32.54,1008.85,-9,-9,39.10,4.30,388.55,2,357.67,2,30.88,1.79,4.60,320.99,-9
AOML_Brown,RB200309,301.144,28102003,03:27:22,11.560,-94.851,409.15,374.31,1009.00,-9,28.52,28.45,32.80,10.72,241.97,32.52,1009.00,-9,-9,31.40,4.50,389.76,2,357.67,2,32.09,1.82,4.02,320.08,-9
AOML_Brown,RB200309,301.147,28102003,03:32:02,11.542,-94.851,410.42,374.31,1009.06,-9,28.52,28.46,32.81,10.74,241.81,32.52,1009.06,-9,-9,28.10,3.89,391.15,2,357.67,2,33.47,1.81,4.23,331.54,-9
AOML_Brown,RB200309,301.159,28102003,03:48:22,11.480,-94.854,415.86,374.31,1009.15,-9,28.47,28.40,32.89,10.88,237.60,32.52,1009.15,-9,-9,40.60,4.10,396.28,2,357.67,2,38.60,1.49,4.75,324.42,-9
AOML_Brown,RB200309,301.162,28102003,03:53:02,11.463,-94.855,418.45,374.31,1009.40,-9,28.47,28.37,32.92,10.80,237.18,32.53,1009.40,-9,-9,57.10,3.99,398.53,2,357.67,2,40.85,1.48,5.96,324.09,-9
AOML_Brown,RB200309,301.165,28102003,03:57:22,11.446,-94.856,420.79,374.31,1009.50,-9,28.46,28.36,32.94,10.57,239.43,32.52,1009.50,-9,-9,37.20,3.10,400.75,2,357.67,2,43.08,1.52,5.00,333.29,-9
AOML_Brown,RB200309,301.168,28102003,04:02:02,11.428,-94.856,422.04,374.31,1009.40,-9,28.40,28.32,32.94,10.69,240.57,32.50,1009.40,-9,-9,47.40,3.40,402.20,2,357.67,2,44.52,1.51,5.19,328.69,-9
AOML_Brown,RB200309,301.179,28102003,04:18:22,11.366,-94.857,424.50,374.17,1009.09,-9,28.34,28.27,32.95,10.73,239.69,32.52,1009.09,-9,-9,50.70,3.89,404.68,2,357.51,2,47.17,1.36,5.57,322.94,-9
AOML_Brown,RB200309,301.183,28102003,04:23:02,11.349,-94.858,425.25,374.17,1009.25,-9,28.35,28.28,32.95,10.58,238.47,32.51,1009.25,-9,-9,52.10,3.89,405.40,2,357.51,2,47.90,1.32,6.06,321.27,-9
AOML_Brown,RB200309,301.186,28102003,04:27:22,11.332,-94.858,426.41,374.17,1009.16,-9,28.35,28.29,32.95,10.78,241.75,32.50,1009.16,-9,-9,39.10,3.60,406.56,2,357.51,2,49.06,1.27,4.73,327.07,-9
AOML_Brown,RB200309,301.189,28102003,04:32:02,11.315,-94.858,427.63,374.17,1009.08,-9,28.37,28.31,32.93,10.53,239.56,32.50,1009.08,-9,-9,43.80,3.49,407.73,2,357.51,2,50.22,1.28,4.84,329.51,-9
AOML_Brown,RB200309,301.200,28102003,04:48:22,11.254,-94.859,427.97,374.17,1009.06,-9,28.47,28.38,32.91,10.63,236.67,32.50,1009.06,-9,-9,44.80,3.99,407.62,2,357.51,2,50.11,1.41,4.36,324.83,-9
AOML_Brown,RB200309,301.203,28102003,04:53:02,11.236,-94.860,428.45,374.17,1008.94,-9,28.44,28.38,32.92,10.77,237.30,32.52,1008.94,-9,-9,40.20,4.39,408.36,2,357.51,2,50.85,1.47,4.46,317.16,-9
AOML_Brown,RB200309,301.207,28102003,04:57:22,11.220,-94.860,429.57,374.17,1009.18,-9,28.47,28.41,32.93,10.73,237.04,32.52,1009.18,-9,-9,24.80,3.40,409.54,2,357.51,2,52.03,1.51,4.41,339.15,-9
AOML_Brown,RB200309,301.210,28102003,05:02:02,11.202,-94.861,431.00,374.17,1008.94,-9,28.48,28.45,32.93,10.75,239.62,32.49,1008.94,-9,-9,41.80,4.19,411.17,2,357.51,2,53.66,1.51,4.86,323.78,-9
AOML_Brown,RB200309,301.221,28102003,05:18:22,11.140,-94.863,434.78,373.66,1008.79,-9,28.55,28.51,32.97,10.93,238.49,32.54,1008.79,-9,-9,34.80,4.50,414.50,2,356.92,2,57.59,1.65,4.06,318.93,-9
AOML_Brown,RB200309,301.224,28102003,05:23:02,11.123,-94.864,436.96,373.66,1009.03,-9,28.58,28.51,32.98,10.69,240.88,32.57,1009.03,-9,-9,44.00,6.59,416.25,2,356.92,2,59.33,1.66,5.08,294.31,-9
AOML_Brown,RB200309,301.227,28102003,05:27:22,11.106,-94.864,439.53,373.66,1008.89,-9,28.60,28.52,33.00,10.81,240.30,32.55,1008.89,-9,-9,44.60,6.79,418.57,2,356.92,2,61.65,1.74,5.14,295.91,-9
AOML_Brown,RB200309,301.231,28102003,05:32:02,11.089,-94.865,441.98,373.66,1008.76,-9,28.57,28.50,33.00,10.75,238.33,32.56,1008.76,-9,-9,41.50,6.79,420.93,2,356.92,2,64.02,1.89,4.91,292.66,-9
AOML_Brown,RB200309,301.242,28102003,05:48:22,11.026,-94.866,452.20,373.66,1008.58,-9,28.37,28.30,33.06,10.71,236.02,32.55,1008.58,-9,-9,35.60,5.69,430.86,2,356.92,2,73.94,2.09,4.17,306.51,-9
AOML_Brown,RB200309,301.245,28102003,05:53:02,11.008,-94.866,454.72,373.66,1008.50,-9,28.40,28.33,33.07,10.69,237.28,32.53,1008.50,-9,-9,33.30,5.39,433.19,2,356.92,2,76.28,2.19,3.49,310.65,-9
AOML_Brown,RB200309,301.248,28102003,05:57:22,10.999,-94.867,455.79,373.66,1008.63,-9,28.41,28.34,33.08,10.93,238.12,32.53,1008.63,-9,-9,359.70,2.40,434.28,2,356.92,2,77.37,2.28,1.99,337.74,-9
AOML_Brown,RB200309,301.251,28102003,06:02:02,10.999,-94.867,456.21,373.66,1008.77,-9,28.42,28.34,33.08,10.76,237.69,32.51,1008.77,-9,-9,354.90,2.80,434.52,2,356.92,2,77.60,2.31,2.61,317.86,-9
AOML_Brown,RB200309,301.263,28102003,06:18:22,11.000,-94.868,456.02,373.93,1008.61,-9,28.39,28.33,33.08,10.64,239.95,32.49,1008.61,-9,-9,323.10,2.29,434.64,2,357.03,2,77.61,2.27,2.29,314.50,-9
AOML_Brown,RB200309,301.266,28102003,06:23:02,11.000,-94.868,455.88,373.93,1008.59,-9,28.40,28.32,33.08,10.62,241.32,32.50,1008.59,-9,-9,306.10,2.29,434.21,2,357.03,2,77.18,2.29,2.29,294.10,-9
AOML_Brown,RB200309,301.269,28102003,06:27:22,11.000,-94.868,455.93,373.93,1008.48,-9,28.38,28.32,33.07,10.82,239.13,32.47,1008.48,-9,-9,323.00,2.20,434.39,2,357.03,2,77.36,2.22,2.11,309.92,-9
AOML_Brown,RB200309,301.272,28102003,06:32:02,11.000,-94.868,456.09,373.93,1008.27,-9,28.36,28.32,33.07,10.80,240.36,32.47,1008.27,-9,-9,306.30,2.90,434.81,2,357.03,2,77.77,2.19,2.90,311.60,-9
AOML_Brown,RB200309,301.284,28102003,06:48:22,11.000,-94.868,457.12,373.93,1008.16,-9,28.39,28.31,33.06,10.92,238.01,32.46,1008.16,-9,-9,295.80,3.40,435.06,2,357.03,2,78.03,2.19,3.31,292.99,-9
AOML_Brown,RB200309,301.287,28102003,06:53:02,11.000,-94.868,457.31,373.93,1008.07,-9,28.39,28.31,33.06,10.74,237.59,32.45,1008.07,-9,-9,286.10,2.90,435.32,2,357.03,2,78.29,2.16,2.90,286.80,-9
AOML_Brown,RB200309,301.290,28102003,06:57:22,11.000,-94.868,457.31,373.93,1007.98,-9,28.38,28.30,33.06,10.88,238.79,32.46,1007.98,-9,-9,303.50,3.30,435.20,2,357.03,2,78.17,2.15,3.31,303.07,-9
AOML_Brown,RB200309,301.293,28102003,07:02:02,11.000,-94.868,457.33,373.93,1007.93,-9,28.37,28.30,33.06,10.64,238.96,32.43,1007.93,-9,-9,293.70,3.69,435.48,2,357.03,2,78.45,2.15,3.62,292.51,-9
AOML_Brown,RB200309,301.304,28102003,07:18:22,10.967,-94.867,456.77,373.23,1007.50,-9,28.41,28.34,33.07,10.70,238.22,32.46,1007.50,-9,-9,34.50,12.99,434.71,2,355.98,2,78.73,2.32,8.26,245.25,-9
AOML_Brown,RB200309,301.308,28102003,07:23:02,10.949,-94.868,455.20,373.23,1007.54,-9,28.44,28.37,33.09,10.55,239.54,32.46,1007.54,-9,-9,50.10,11.19,433.07,2,355.98,2,77.09,2.32,7.68,259.78,-9
AOML_Brown,RB200309,301.311,28102003,07:27:22,10.933,-94.868,452.98,373.23,1007.53,-9,28.46,28.38,33.11,10.58,238.58,32.45,1007.53,-9,-9,45.60,10.78,430.89,2,355.98,2,74.91,2.34,7.73,266.87,-9
AOML_Brown,RB200309,301.314,28102003,07:32:02,10.916,-94.869,449.78,373.23,1007.55,-9,28.47,28.39,33.12,10.75,240.93,32.45,1007.55,-9,-9,48.00,10.49,427.80,2,355.98,2,71.81,2.38,8.01,271.94,-9
AOML_Brown,RB200309,301.325,28102003,07:48:22,10.856,-94.871,441.23,373.23,1007.50,-9,28.58,28.51,33.13,10.72,236.06,32.44,1007.50,-9,-9,47.90,9.99,419.71,2,355.98,2,63.73,2.38,8.20,279.82,-9
AOML_Brown,RB200309,301.328,28102003,07:53:02,10.839,-94.872,438.16,373.23,1007.34,-9,28.63,28.59,33.15,10.78,237.21,32.45,1007.34,-9,-9,50.30,11.48,417.09,2,355.98,2,61.11,2.46,8.85,268.21,-9
AOML_Brown,RB200309,301.332,28102003,07:57:22,10.823,-94.873,432.67,373.23,1007.25,-9,28.66,28.62,33.19,10.76,236.77,32.44,1007.25,-9,-9,41.60,12.18,411.75,2,355.98,2,55.77,2.47,8.46,253.40,-9
AOML_Brown,RB200309,301.335,28102003,08:02:02,10.806,-94.874,426.17,373.23,1007.32,-9,28.68,28.62,33.21,10.66,237.47,32.43,1007.32,-9,-9,49.20,11.29,405.28,2,355.98,2,49.30,2.46,8.57,267.04,-9
AOML_Brown,RB200309,301.346,28102003,08:18:22,10.746,-94.875,412.93,373.28,1006.95,-9,28.66,28.58,33.22,10.74,238.47,32.45,1006.95,-9,-9,51.90,11.29,392.41,2,355.55,2,36.85,2.41,8.89,274.01,-9
AOML_Brown,RB200309,301.349,28102003,08:23:02,10.729,-94.876,411.23,373.28,1006.77,-9,28.65,28.58,33.21,10.70,240.89,32.45,1006.77,-9,-9,55.00,11.68,390.84,2,355.55,2,35.29,2.39,9.57,272.02,-9
AOML_Brown,RB200309,301.352,28102003,08:27:22,10.714,-94.877,410.51,373.28,1006.82,-9,28.66,28.59,33.20,10.54,239.05,32.44,1006.82,-9,-9,58.30,11.29,390.12,2,355.55,2,34.56,2.38,8.77,280.56,-9
AOML_Brown,RB200309,301.356,28102003,08:32:02,10.696,-94.878,411.16,373.28,1006.59,-9,28.67,28.58,33.20,10.50,240.92,32.42,1006.59,-9,-9,58.70,10.19,390.43,2,355.55,2,34.88,2.42,8.86,281.15,-9
AOML_Brown,RB200309,301.367,28102003,08:48:22,10.636,-94.880,411.23,373.28,1006.42,-9,28.61,28.51,33.19,10.56,235.74,32.43,1006.42,-9,-9,55.10,11.48,390.30,2,355.55,2,34.74,2.35,9.42,271.94,-9
AOML_Brown,RB200309,301.370,28102003,08:53:02,10.619,-94.880,410.26,373.28,1006.59,-9,28.56,28.46,33.19,10.73,238.55,32.42,1006.59,-9,-9,56.70,10.39,389.48,2,355.55,2,33.93,2.28,9.54,282.71,-9
AOML_Brown,RB200309,301.373,28102003,08:57:22,10.603,-94.881,409.37,373.28,1006.66,-9,28.52,28.45,33.19,10.61,237.41,32.42,1006.66,-9,-9,59.10,10.49,389.04,2,355.55,2,33.49,2.29,9.15,281.18,-9
AOML_Brown,RB200309,301.376,28102003,09:02:02,10.585,-94.881,409.03,373.28,1006.48,-9,28.53,28.42,33.16,10.68,239.84,32.41,1006.48,-9,-9,53.10,9.69,388.11,2,355.55,2,32.56,2.21,7.96,280.09,-9
AOML_Brown,RB200309,301.388,28102003,09:18:22,10.524,-94.883,408.00,373.42,1006.57,-9,28.42,28.34,33.06,10.47,238.40,32.42,1006.57,-9,-9,51.50,11.39,387.77,2,355.95,2,31.82,2.14,9.33,274.19,-9